COSMOS 2251 DEB, 34432

Orbit data source: Space-Track

COSMOS 2251 DEB, 34432 is space debris in LEO originally from a launch on Wed, 16 Jun 1993 UTC launched from the Plesetsk Missile And Space Complex (PKMTR). The debris from Iridium 33, an American commercial communications satellite, has been tracked extensively since its accidental collision with the defunct Russian satellite Cosmos 2251 in 2009. This event, occurring at high speed in low Earth orbit (LEO), generated thousands of pieces of space debris, significantly increasing the risk of further collisions. The Iridium 33 debris cloud has impacted space traffic management and orbital debris mitigation strategies, making it a subject of ongoing study in space situational awareness.

Loading next visibility...
Identifier
34432, 1993-036RZ
Orbit
LEO
Country
Flag of CISCIS
Related business
Manufacturer
Unknown
Mission
Spacecraft
Bus & Motor
Unknown
Mass
Unknown
Launch date (UTC)
1993-06-16 (33 years ago)
Launch vehicle
Unknown
Launch site
Plesetsk Missile And Space Complex (PKMTR)
Object type
Payload
Rocket body
Debris
Shape & HBR
Unknown shape, 0.1 m
Radar Cross Section
Medium (>0.1 m² and <1 m²)

Expand to show TLE details & history
Last TLE update: 15 hours ago

TLE from 15 hours ago
0 COSMOS 2251 DEB
1 34432U 93036RZ  26264.15844369  .00000659  00000-0  37641-3 0  9991
2 34432  73.8281 324.4250 0183334 355.7064  33.5751 14.03538818896467
Epoch: 2026-09-21T03:48Z
TLE epoch observation values (Epoch: 2026-09-21T03:48:09.534Z)
Latitude
29.19671°
Longitude
-83.38135°
Altitude
774.696 km
Speed
7.526 km/s
True Right ascension
22h 14m 48s
True Declination
29° 03' 03"
Sunlit
Object was in full shadow at epoch
Visualization orbit readout
Latitude
Unknown
Longitude
Unknown
Altitude
Unknown
Speed
Unknown
Apparent Right ascension
Unknown
Apparent Declination
Unknown
Sunlit
N/A
Visualization observer readout
Local Sidereal Time
12:20:17
Azimuth
Unknown
Elevation
Unknown
Doppler factor
Unknown
Orbital elements
Apogee altitude
1,012.295 km
Perigee altitude
746.191 km
Semi-major axis
7,257.38 km
Eccentricity
0.01833
Inclination
73.8281°
RAAN
324.425°
Arg. of periapsis
355.7064°
True anomaly
34.75945°
Mean anomaly
33.5751°
Eccentric anomaly
34.165°
Mean motion
3.51054 °/min
Orbital period
102.55 mins
BSTAR
0.00037641
Loading maneuver chart data...
Computing Atmospheric mass density...

Documentation

Showing up to 5 results
|